When you browse on this site, cookies collect data to enhance your experience and personalize the content and advertising you see.
Visit our Privacy Policy to learn more. By continuing to use the site, you agree to this use of cookies and data.
  • In Österreich
  • Länderverzeichnis
  • Für 7 Tage
  • Wassertemperatur
  • Wetterkarte
  • News
  • Widgets
  • user-avatar
    Anmelden

    Stündliche Wetter Melbourne

    Heute, 25 Februar, Dienstag

    Zeit Temperatur Niederschläge Wind Luftdruck Luftfeuchtigkeit
    00:00 +21°C° 0 mm 1 m/S 760 mmHg 84%
    01:00 +21°C° 0 mm 1 m/S 759 mmHg 85%
    02:00 +21°C° 0.1 mm 1 m/S 759 mmHg 83%
    03:00 +21°C° 0.1 mm 2 m/S 758 mmHg 81%
    04:00 +22°C° 0 mm 1 m/S 757 mmHg 79%
    05:00 +21°C° 0.1 mm 2 m/S 758 mmHg 76%
    06:00 +23°C° 0.1 mm 2 m/S 758 mmHg 73%
    07:00 +22°C° 0.1 mm 3 m/S 758 mmHg 69%
    08:00 +25°C° 0 mm 3 m/S 757 mmHg 59%
    09:00 +28°C° 0 mm 4 m/S 757 mmHg 49%
    10:00 +32°C° 0 mm 4 m/S 757 mmHg 38%
    11:00 +33°C° 0 mm 4 m/S 756 mmHg 36%
    12:00 +34°C° 0 mm 5 m/S 756 mmHg 33%
    13:00 +35°C° 0 mm 5 m/S 755 mmHg 31%
    14:00 +34°C° 0 mm 5 m/S 755 mmHg 33%
    15:00 +33°C° 0 mm 5 m/S 754 mmHg 36%
    16:00 +32°C° 0 mm 5 m/S 753 mmHg 39%
    17:00 +28°C° 0 mm 4 m/S 753 mmHg 51%
    18:00 +25°C° 0 mm 4 m/S 754 mmHg 63%
    19:00 +22°C° 0 mm 3 m/S 754 mmHg 76%
    20:00 +21°C° 0 mm 3 m/S 754 mmHg 74%
    21:00 +20°C° 0 mm 2 m/S 754 mmHg 73%
    22:00 +20°C° 0 mm 2 m/S 754 mmHg 72%
    23:00 +19°C° 0 mm 2 m/S 754 mmHg 72%

    Morgen, 26 Februar, Mittwoch

    Zeit Temperatur Niederschläge Wind Luftdruck Luftfeuchtigkeit
    00:00 +20°C° 0 mm 1 m/S 754 mmHg 73%
    01:00 +19°C° 0 mm 1 m/S 754 mmHg 74%
    02:00 +18°C° 0 mm 2 m/S 753 mmHg 75%
    03:00 +17°C° 0 mm 3 m/S 753 mmHg 76%
    04:00 +17°C° 0 mm 4 m/S 752 mmHg 77%
    05:00 +17°C° 0 mm 4 m/S 753 mmHg 73%
    06:00 +17°C° 0 mm 4 m/S 753 mmHg 69%
    07:00 +16°C° 0 mm 5 m/S 754 mmHg 65%
    08:00 +16°C° 0.4 mm 5 m/S 754 mmHg 68%
    09:00 +15°C° 0.4 mm 6 m/S 755 mmHg 71%
    10:00 +15°C° 0.4 mm 6 m/S 756 mmHg 74%
    11:00 +16°C° 0.1 mm 6 m/S 756 mmHg 65%
    12:00 +17°C° 0.1 mm 6 m/S 756 mmHg 55%
    13:00 +19°C° 0.1 mm 5 m/S 756 mmHg 45%
    14:00 +19°C° 0 mm 5 m/S 756 mmHg 45%
    15:00 +19°C° 0 mm 6 m/S 756 mmHg 45%
    16:00 +19°C° 0 mm 6 m/S 756 mmHg 45%
    17:00 +17°C° 0 mm 5 m/S 757 mmHg 48%
    18:00 +16°C° 0 mm 5 m/S 757 mmHg 52%
    19:00 +15°C° 0 mm 5 m/S 758 mmHg 55%
    20:00 +14°C° 0 mm 4 m/S 758 mmHg 57%
    21:00 +14°C° 0 mm 3 m/S 759 mmHg 58%
    22:00 +13°C° 0 mm 3 m/S 759 mmHg 60%
    23:00 +13°C° 0 mm 3 m/S 759 mmHg 61%

    übermorgen, 27 Februar, Donnerstag

    Zeit Temperatur Niederschläge Wind Luftdruck Luftfeuchtigkeit
    00:00 +13°C° 0 mm 2 m/S 759 mmHg 62%
    01:00 +13°C° 0 mm 2 m/S 758 mmHg 63%
    02:00 +13°C° 0 mm 2 m/S 758 mmHg 65%
    03:00 +12°C° 0 mm 2 m/S 758 mmHg 66%
    04:00 +12°C° 0 mm 2 m/S 758 mmHg 68%
    05:00 +12°C° 0 mm 2 m/S 758 mmHg 67%
    06:00 +11°C° 0 mm 3 m/S 758 mmHg 66%
    07:00 +11°C° 0 mm 3 m/S 759 mmHg 65%
    08:00 +13°C° 0 mm 3 m/S 759 mmHg 59%
    09:00 +16°C° 0 mm 3 m/S 758 mmHg 53%
    10:00 +18°C° 0 mm 3 m/S 758 mmHg 46%
    11:00 +19°C° 0 mm 3 m/S 758 mmHg 43%
    12:00 +21°C° 0 mm 4 m/S 757 mmHg 40%
    13:00 +22°C° 0 mm 4 m/S 756 mmHg 36%
    14:00 +22°C° 0 mm 4 m/S 756 mmHg 37%
    15:00 +22°C° 0 mm 5 m/S 756 mmHg 38%
    16:00 +23°C° 0 mm 5 m/S 755 mmHg 39%
    17:00 +21°C° 0 mm 5 m/S 755 mmHg 44%
    18:00 +20°C° 0 mm 5 m/S 756 mmHg 49%
    19:00 +19°C° 0 mm 5 m/S 756 mmHg 54%
    20:00 +18°C° 0 mm 4 m/S 756 mmHg 57%
    21:00 +18°C° 0 mm 4 m/S 757 mmHg 60%
    22:00 +17°C° 0 mm 4 m/S 757 mmHg 63%
    23:00 +17°C° 0 mm 4 m/S 757 mmHg 66%

    28 Februar, Freitag

    Zeit Temperatur Niederschläge Wind Luftdruck Luftfeuchtigkeit
    00:00 +17°C° 0 mm 4 m/S 757 mmHg 68%
    01:00 +15°C° 0 mm 4 m/S 757 mmHg 71%
    02:00 +15°C° 0.1 mm 4 m/S 757 mmHg 71%
    03:00 +15°C° 0.1 mm 4 m/S 757 mmHg 72%
    04:00 +15°C° 0.1 mm 4 m/S 757 mmHg 72%
    05:00 +15°C° 0 mm 4 m/S 758 mmHg 72%
    06:00 +15°C° 0 mm 4 m/S 758 mmHg 72%
    07:00 +14°C° 0 mm 3 m/S 759 mmHg 72%
    08:00 +15°C° 0 mm 4 m/S 759 mmHg 67%
    09:00 +17°C° 0 mm 4 m/S 759 mmHg 62%
    10:00 +18°C° 0 mm 4 m/S 760 mmHg 57%
    11:00 +19°C° 0 mm 4 m/S 760 mmHg 56%
    12:00 +19°C° 0 mm 4 m/S 760 mmHg 55%
    13:00 +19°C° 0 mm 4 m/S 760 mmHg 54%
    14:00 +20°C° 0 mm 4 m/S 759 mmHg 52%
    15:00 +20°C° 0 mm 4 m/S 759 mmHg 51%
    16:00 +20°C° 0 mm 4 m/S 759 mmHg 50%
    17:00 +19°C° 0 mm 4 m/S 759 mmHg 54%
    18:00 +19°C° 0 mm 3 m/S 760 mmHg 58%
    19:00 +18°C° 0 mm 3 m/S 760 mmHg 62%
    20:00 +17°C° 0 mm 3 m/S 761 mmHg 66%
    21:00 +16°C° 0 mm 3 m/S 761 mmHg 70%
    22:00 +16°C° 0 mm 2 m/S 761 mmHg 73%
    23:00 +16°C° 0 mm 2 m/S 761 mmHg 75%

    29 Februar, Samstag

    Zeit Temperatur Niederschläge Wind Luftdruck Luftfeuchtigkeit
    00:00 +15°C° 0 mm 2 m/S 761 mmHg 78%
    01:00 +15°C° 0 mm 2 m/S 761 mmHg 80%
    02:00 +15°C° 0 mm 2 m/S 761 mmHg 81%
    03:00 +15°C° 0 mm 2 m/S 761 mmHg 82%
    04:00 +15°C° 0 mm 2 m/S 761 mmHg 82%
    05:00 +15°C° 0 mm 1 m/S 761 mmHg 82%
    06:00 +15°C° 0 mm 1 m/S 761 mmHg 82%
    07:00 +15°C° 0 mm 1 m/S 761 mmHg 81%
    08:00 +18°C° 0 mm 1 m/S 762 mmHg 74%
    09:00 +20°C° 0 mm 1 m/S 762 mmHg 67%
    10:00 +21°C° 0 mm 1 m/S 762 mmHg 59%
    11:00 +21°C° 0 mm 2 m/S 761 mmHg 56%
    12:00 +23°C° 0 mm 2 m/S 761 mmHg 53%
    13:00 +24°C° 0 mm 3 m/S 761 mmHg 51%
    14:00 +24°C° 0 mm 3 m/S 760 mmHg 51%
    15:00 +23°C° 0 mm 4 m/S 760 mmHg 52%
    16:00 +23°C° 0 mm 4 m/S 759 mmHg 52%
    17:00 +22°C° 0 mm 4 m/S 760 mmHg 58%
    18:00 +20°C° 0 mm 4 m/S 760 mmHg 65%
    19:00 +19°C° 0 mm 4 m/S 760 mmHg 71%
    20:00 +18°C° 0 mm 3 m/S 761 mmHg 74%
    21:00 +18°C° 0 mm 3 m/S 761 mmHg 77%
    22:00 +17°C° 0 mm 2 m/S 761 mmHg 81%
    23:00 +17°C° 0 mm 2 m/S 761 mmHg 82%

    1 März, Sonntag

    Zeit Temperatur Niederschläge Wind Luftdruck Luftfeuchtigkeit
    00:00 +17°C° 0 mm 2 m/S 761 mmHg 83%
    01:00 +17°C° 0 mm 2 m/S 760 mmHg 83%
    02:00 +17°C° 0 mm 2 m/S 760 mmHg 84%
    03:00 +16°C° 0 mm 2 m/S 760 mmHg 84%
    04:00 +16°C° 0 mm 2 m/S 760 mmHg 85%
    05:00 +16°C° 0 mm 2 m/S 760 mmHg 84%
    06:00 +17°C° 0 mm 2 m/S 760 mmHg 83%
    07:00 +17°C° 0 mm 2 m/S 761 mmHg 82%
    08:00 +18°C° 0 mm 2 m/S 761 mmHg 77%
    09:00 +19°C° 0 mm 2 m/S 761 mmHg 72%
    10:00 +20°C° 0 mm 2 m/S 761 mmHg 66%
    11:00 +21°C° 0 mm 3 m/S 761 mmHg 63%
    12:00 +21°C° 0 mm 4 m/S 760 mmHg 60%
    13:00 +22°C° 0 mm 4 m/S 760 mmHg 57%
    14:00 +22°C° 0 mm 5 m/S 760 mmHg 56%
    15:00 +22°C° 0 mm 5 m/S 760 mmHg 55%
    16:00 +22°C° 0 mm 5 m/S 760 mmHg 55%
    17:00 +20°C° 0 mm 5 m/S 760 mmHg 60%
    18:00 +19°C° 0 mm 5 m/S 761 mmHg 65%
    19:00 +18°C° 0 mm 4 m/S 761 mmHg 71%
    20:00 +17°C° 0 mm 4 m/S 761 mmHg 73%
    21:00 +17°C° 0 mm 4 m/S 762 mmHg 75%
    22:00 +17°C° 0 mm 4 m/S 762 mmHg 77%
    23:00 +17°C° 0 mm 4 m/S 762 mmHg 76%
    Mehr zeigen